Location: Doschendorf
(50.0069°N, 11.0602°E)
Time: 21:42:54
(UTC+00:00)

Cosmos 1867 - Pass Details

Date: 17 November 2019
Orbit: 776 x 799 km, 65.0° (Epoch: 07 December)

Event Time Altitude Azimuth Distance (km) Brightness Sun altitude
Rises 16:16:03 0° 224° (SW) 3,286 8.1 -7.6°
Reaches altitude 10° 16:18:28 10° 226° (SW) 2,363 7.3 -8.0°
Maximum altitude 16:23:55 74° 312° (NW) 833 3.8 -8.8°
Drops below altitude 10° 16:29:25 10° 38° (NE) 2,383 5.6 -9.6°
Enters shadow 16:30:04 - 39° (NE) 2,635 5.8 -9.7°
